星链-3254 (STARLINK-3254 )

导读

STARLINK-3254是美国太空探索技术公司(SpaceX)发射的星链(Starlink)卫星,发射于2021年12月18日。作为星链互联网卫星星座的一员,它旨在为全球尤其是偏远地区提供高速低延迟的宽带互联网服务,是SpaceX构建全球卫星互联网计划的重要组成部分。

基本信息
目录编号:
50204
目录名称:
STARLINK-3254
国际标识:
2021-125BA
轨道中心:
EARTH
卫星名称:
星链-3254
卫星全名:
星链-3254 (STARLINK-3254 )
卫星状态:
在轨 (已飞行1642 天)
发射日期:
2021-12-18 UTC
国别 :
美国 (US)
星等 :
--
轨道信息
数据来源 国际轨道数据 AOE轨道数据
星历时间 2026-06-17T13:21:03+0800
15小时前
查看轨道信息
2026-06-16T23:00:00+0800
1天前
查看轨道信息
半长轴 6917.894km 6917.906km
偏心率 0.000138 0.0001418
轨道倾角 53.160° 53.158°
近地点辐角 88.236° 84.901°
升交点赤经 152.212° 154.903°
平近点角 271.879° 265.452°
近地点 538.802km 538.788km
远地点 540.712km 540.75km
周期 95.438分钟 95.438分钟
每日圈数 15.088356 15.088318
详细信息
固有亮度:
5
最大亮度:
2.5
卫星平台:
Starlink v1.5
覆盖范围:
全球
运营商:
太空探索技术公司
运营商所在国:
美国
制造商(研发单位):
太空探索技术公司
制造商所在国:
美国
使用方式:
暂无
卫星简介
星链(Starlink)计划是由太空探索技术公司(SpaceX)提出的一个巨型低轨卫星互联网星座项目,计划在2019年至2024年间在太空搭建由约1.2万颗卫星组成的“星链”网络,其中1584颗将部署在地球上空550千米处的近地轨道,并从2020年开始工作。该卫星仍在工作。
2D轨道图
3D轨道图
轨道高度分析图
轨道倾角分析图
轨道综合分析图
查看轨道综合分析图